GW4214 Weather Reports


Display with metric or nautical units.
time (UTC)temp
F
wind
direction
speed
MPH
gust
MPH
rain 1hr
in
rain 24hr
in
rain mn
in
humidity
%
barometer
mb
20260901121439 59 125 3.0 3.0 0.00 0.00 0.00 86 1014.2
20260901120935 59 173 3.0 3.0 0.00 0.00 0.00 87 1014.2
20260901120429 59 196 3.0 3.0 0.00 0.00 0.00 87 1014.2
20260901115925 59 181 2.0 2.0 0.00 0.00 0.00 87 1014.2
20260901115425 59 185 2.0 2.0 0.00 0.00 0.00 87 1014.5
20260901114923 59 199 0.0 1.0 0.00 0.00 0.00 88 1014.2
20260901114418 59 204 0.0 0.0 0.00 0.00 0.00 88 1014.5
20260901113916 59 200 0.0 0.0 0.00 0.00 0.00 88 1014.2
20260901113415 59 193 1.0 1.0 0.00 0.00 0.00 88 1014.2
20260901112911 59 192 1.0 1.0 0.00 0.00 0.00 88 1014.2
20260901112405 59 200 1.0 1.0 0.00 0.00 0.00 88 1014.2
20260901111900 59 195 1.0 2.0 0.00 0.00 0.00 88 1014.2
20260901111358 58 199 0.0 0.0 0.00 0.00 0.00 89 1014.2
20260901110857 58 209 0.0 0.0 0.00 0.00 0.00 89 1014.5
20260901110353 58 215 0.0 0.0 0.00 0.00 0.00 89 1014.2
20260901105849 58 224 0.0 0.0 0.00 0.00 0.00 89 1014.2
20260901105344 58 224 0.0 1.0 0.00 0.00 0.00 89 1014.2
20260901104840 58 203 0.0 0.0 0.00 0.00 0.00 90 1014.2
20260901104335 58 208 0.0 0.0 0.00 0.00 0.00 90 1013.8
20260901103830 58 207 0.0 0.0 0.00 0.00 0.00 90 1014.2
20260901103324 58 207 0.0 0.0 0.00 0.00 0.00 90 1014.2
20260901102819 58 207 0.0 0.0 0.00 0.00 0.00 90 1014.2
20260901102314 57 212 0.0 0.0 0.00 0.00 0.00 90 1013.8
20260901101809 58 211 0.0 0.0 0.00 0.00 0.00 90 1014.2
20260901101304 58 204 0.0 0.0 0.00 0.00 0.00 90 1013.8
20260901100803 57 205 2.0 2.0 0.00 0.00 0.00 90 1013.8
20260901100257 57 208 0.0 0.0 0.00 0.00 0.00 90 1014.2
20260901095756 57 209 0.0 0.0 0.00 0.00 0.00 90 1014.2
20260901095253 57 210 0.0 0.0 0.00 0.00 0.00 90 1014.2
20260901094743 57 209 0.0 0.0 0.00 0.00 0.00 89 1014.2
20260901094237 58 209 0.0 0.0 0.00 0.00 0.00 89 1013.8
20260901093733 58 213 0.0 0.0 0.00 0.00 0.00 89 1014.2
20260901093231 58 184 1.0 1.0 0.00 0.00 0.00 89 1014.2
20260901092727 58 208 0.0 0.0 0.00 0.00 0.00 89 1014.2
20260901092223 58 211 0.0 0.0 0.00 0.00 0.00 89 1014.2
20260901091718 58 211 0.0 1.0 0.00 0.00 0.00 88 1014.2
20260901091214 58 200 0.0 1.0 0.00 0.00 0.00 88 1013.8
20260901090708 58 192 1.0 1.0 0.00 0.00 0.00 88 1014.2
20260901090204 58 204 0.0 0.0 0.00 0.00 0.00 88 1013.8
20260901085700 58 199 2.0 2.0 0.00 0.00 0.00 88 1013.8
20260901085155 58 210 1.0 1.0 0.00 0.00 0.00 88 1013.5
20260901084651 58 186 1.0 1.0 0.00 0.00 0.00 87 1013.8
20260901084147 59 200 1.0 1.0 0.00 0.00 0.00 87 1013.5
20260901083647 59 192 1.0 1.0 0.00 0.00 0.00 87 1013.5
20260901083146 59 193 2.0 2.0 0.00 0.00 0.00 86 1013.5
20260901082639 59 196 2.0 2.0 0.00 0.00 0.00 86 1013.8
20260901082135 59 197 0.0 1.0 0.00 0.00 0.00 86 1013.5
20260901081630 59 174 2.0 3.0 0.00 0.00 0.00 86 1013.5
20260901081125 59 203 0.0 1.0 0.00 0.00 0.00 85 1013.5
20260901080620 59 200 0.0 1.0 0.00 0.00 0.00 85 1013.8
20260901080118 59 185 5.0 6.0 0.00 0.00 0.00 85 1013.8
20260901075614 60 198 1.0 1.0 0.00 0.00 0.00 85 1013.2
20260901075114 60 188 3.0 3.0 0.00 0.00 0.00 85 1013.5
20260901074614 60 191 2.0 2.0 0.00 0.00 0.00 84 1013.8
20260901074113 60 200 2.0 2.0 0.00 0.00 0.00 84 1013.5
20260901073610 60 203 3.0 3.0 0.00 0.00 0.00 84 1013.5
20260901073105 60 198 3.0 3.0 0.00 0.00 0.00 84 1013.5
20260901072600 60 196 1.0 1.0 0.00 0.00 0.00 84 1013.5
20260901072055 60 196 1.0 1.0 0.00 0.00 0.00 84 1013.5
20260901071550 60 160 3.0 5.0 0.00 0.00 0.00 84 1013.5
20260901071049 60 203 1.0 1.0 0.00 0.00 0.00 84 1013.2
20260901070543 60 190 2.0 2.0 0.00 0.00 0.00 84 1013.2
20260901070039 60 169 2.0 2.0 0.00 0.00 0.00 84 1013.2
20260901065533 60 202 1.0 2.0 0.00 0.00 0.00 84 1013.5
20260901065028 60 217 4.0 5.0 0.00 0.00 0.00 84 1013.5
20260901064525 61 221 2.0 2.0 0.00 0.00 0.00 83 1013.2
20260901064021 61 206 2.0 2.0 0.00 0.00 0.00 83 1013.2
20260901063518 61 180 4.0 5.0 0.00 0.00 0.00 83 1013.2
20260901063014 61 193 1.0 2.0 0.00 0.00 0.00 83 1012.8
20260901062509 61 174 0.0 0.0 0.00 0.00 0.00 83 1013.2
20260901062005 61 199 0.0 0.0 0.00 0.00 0.00 83 1012.8
20260901061501 61 198 0.0 0.0 0.00 0.00 0.00 83 1013.2
20260901061000 61 209 0.0 0.0 0.00 0.00 0.00 82 1012.8
20260901060455 61 190 0.0 0.0 0.00 0.00 0.00 82 1013.2
20260901055955 61 204 0.0 0.0 0.00 0.00 0.00 82 1012.8
20260901055451 62 200 0.0 0.0 0.00 0.00 0.00 82 1012.8
20260901054943 62 213 0.0 0.0 0.00 0.00 0.00 81 1012.8
20260901054440 62 214 0.0 0.0 0.00 0.00 0.00 81 1012.8
20260901053935 62 218 0.0 0.0 0.00 0.00 0.00 81 1012.8
20260901053430 62 215 0.0 0.0 0.00 0.00 0.00 81 1012.5
20260901052920 62 201 0.0 0.0 0.00 0.00 0.00 81 1012.5
20260901052415 63 220 0.0 0.0 0.00 0.00 0.00 80 1012.5
20260901051913 63 195 3.0 5.0 0.00 0.00 0.00 79 1012.5
20260901051409 63 172 2.0 2.0 0.00 0.00 0.00 78 1012.5
20260901050903 63 208 2.0 2.0 0.00 0.00 0.00 77 1012.5
20260901050359 63 175 3.0 3.0 0.00 0.00 0.00 77 1012.5
20260901045854 64 188 2.0 2.0 0.00 0.00 0.00 75 1012.5
20260901045353 64 198 4.0 5.0 0.00 0.00 0.00 74 1012.5
20260901044849 64 214 2.0 3.0 0.00 0.00 0.00 73 1012.1
20260901044345 64 206 5.0 7.0 0.00 0.00 0.00 73 1012.1
20260901043841 65 185 1.0 5.0 0.00 0.00 0.00 72 1012.1
20260901043337 65 216 3.0 3.0 0.00 0.00 0.00 71 1012.1
20260901042836 66 219 3.0 5.0 0.00 0.00 0.00 70 1012.1
20260901042331 66 215 1.0 2.0 0.00 0.00 0.00 69 1011.8
20260901041821 67 177 4.0 5.0 0.00 0.00 0.00 68 1011.8
20260901041316 67 200 0.0 0.0 0.00 0.00 0.00 67 1011.8
20260901040810 67 212 4.0 5.0 0.00 0.00 0.00 66 1011.5
20260901040309 68 213 0.0 0.0 0.00 0.00 0.00 65 1011.5
20260901035808 68 206 0.0 0.0 0.00 0.00 0.00 65 1011.5
20260901035307 68 177 1.0 2.0 0.00 0.00 0.00 64 1011.5
20260901034806 69 179 3.0 3.0 0.00 0.00 0.00 64 1011.1
20260901034301 69 214 1.0 2.0 0.00 0.00 0.00 63 1011.1
20260901033756 70 193 3.0 5.0 0.00 0.00 0.00 62 1011.1
20260901033255 70 214 1.0 1.0 0.00 0.00 0.00 61 1010.7
20260901032753 70 224 5.0 6.0 0.00 0.00 0.00 60 1010.7
20260901032247 71 213 0.0 1.0 0.00 0.00 0.00 59 1010.7
20260901031743 71 202 5.0 6.0 0.00 0.00 0.00 59 1010.7
20260901031239 71 6 1.0 3.0 0.00 0.00 0.00 58 1010.7
20260901030733 71 222 2.0 3.0 0.00 0.00 0.00 57 1010.7
20260901030228 72 218 2.0 5.0 0.00 0.00 0.00 57 1010.4
20260901025722 72 244 3.0 3.0 0.00 0.00 0.00 56 1010.0
20260901025217 73 285 6.0 7.0 0.00 0.00 0.00 56 1010.4
20260901024712 74 336 4.0 5.0 0.00 0.00 0.00 55 1010.0
20260901024211 74 210 2.0 3.0 0.00 0.00 0.00 55 1010.4
20260901023709 75 220 1.0 2.0 0.00 0.00 0.00 55 1010.0
20260901023204 76 212 0.0 0.0 0.00 0.00 0.00 53 1010.0
20260901022659 76 231 1.0 1.0 0.00 0.00 0.00 53 1010.0
20260901022154 76 205 0.0 1.0 0.00 0.00 0.00 53 1010.0
20260901021650 76 229 1.0 1.0 0.00 0.00 0.00 52 1009.7
20260901021145 76 266 4.0 5.0 0.00 0.00 0.00 52 1009.7
20260901020641 77 312 4.0 6.0 0.00 0.00 0.00 51 1009.7
20260901020131 77 301 4.0 7.0 0.00 0.00 0.00 51 1010.0
20260901015626 77 289 2.0 3.0 0.00 0.00 0.00 51 1010.0
20260901015125 78 266 6.0 8.0 0.00 0.00 0.00 50 1009.3
20260901014619 79 337 5.0 7.0 0.00 0.00 0.00 50 1009.7
20260901014116 80 293 7.0 9.0 0.00 0.00 0.00 49 1009.3
20260901013612 80 303 6.0 9.0 0.00 0.00 0.00 49 1009.3
20260901013108 80 298 6.0 8.0 0.00 0.00 0.00 48 1009.3
20260901012607 82 255 4.0 5.0 0.00 0.00 0.00 47 1009.3
20260901012102 84 297 2.0 9.0 0.00 0.00 0.00 44 1009.7
20260901011559 84 231 0.0 0.0 0.00 0.00 0.00 44 1009.7
20260901011056 84 183 1.0 3.0 0.00 0.00 0.00 43 1009.3
20260901010552 84 221 0.0 0.0 0.00 0.00 0.00 41 1009.7
20260901010051 84 189 0.0 0.0 0.00 0.00 0.00 41 1009.7
20260901005546 85 218 0.0 0.0 0.00 0.00 0.00 40 1009.7
20260901005041 85 211 0.0 0.0 0.00 0.00 0.00 38 1009.3
20260901004540 85 210 0.0 0.0 0.00 0.00 0.00 38 1009.7
20260901004036 86 179 0.0 0.0 0.00 0.00 0.00 38 1009.7
20260901003531 85 214 0.0 0.0 0.00 0.00 0.00 35 1009.7
20260901003029 84 188 0.0 0.0 0.00 0.00 0.00 36 1009.7
20260901002528 85 195 0.0 0.0 0.00 0.00 0.00 37 1009.7
20260901002024 85 206 0.0 0.0 0.00 0.00 0.00 36 1009.7
20260901001519 86 191 0.0 0.0 0.00 0.00 0.00 38 1009.7
20260901001014 85 205 0.0 0.0 0.00 0.00 0.00 37 1009.7
20260901000513 85 217 0.0 0.0 0.00 0.00 0.00 38 1009.7
20260901000009 85 229 0.0 0.0 0.00 0.00 0.00 38 1010.0
20260831235503 86 191 0.0 0.0 0.00 0.00 0.00 39 1009.7
20260831234958 87 205 0.0 0.0 0.00 0.00 0.00 39 1009.7
20260831234453 88 180 0.0 0.0 0.00 0.00 0.00 38 1009.7
20260831233948 89 240 0.0 0.0 0.00 0.00 0.00 37 1009.7
20260831233443 88 209 0.0 0.0 0.00 0.00 0.00 38 1010.0
20260831232939 86 204 0.0 0.0 0.00 0.00 0.00 39 1009.7
20260831232435 86 200 0.0 0.0 0.00 0.00 0.00 40 1009.7
20260831231930 86 172 0.0 0.0 0.00 0.00 0.00 40 1010.0
20260831231426 87 12 1.0 2.0 0.00 0.00 0.00 37 1010.0
20260831230922 85 171 0.0 0.0 0.00 0.00 0.00 40 1010.4
20260831230417 85 208 0.0 0.0 0.00 0.00 0.00 42 1010.4
20260831225911 84 201 0.0 0.0 0.00 0.00 0.00 42 1010.0
20260831225407 83 188 0.0 0.0 0.00 0.00 0.00 44 1010.4
20260831224902 84 167 0.0 0.0 0.00 0.00 0.00 43 1010.4
20260831224401 88 164 0.0 0.0 0.00 0.00 0.00 38 1010.4
20260831223856 88 160 0.0 0.0 0.00 0.00 0.00 39 1010.0
20260831223352 88 208 0.0 0.0 0.00 0.00 0.00 39 1010.4
20260831222849 88 188 0.0 0.0 0.00 0.00 0.00 38 1010.4
20260831222344 86 211 0.0 0.0 0.00 0.00 0.00 41 1010.4
20260831221839 84 84 0.0 0.0 0.00 0.00 0.00 42 1010.4
20260831221335 85 226 0.0 0.0 0.00 0.00 0.00 45 1010.4
20260831220830 84 208 0.0 0.0 0.00 0.00 0.00 42 1010.4
20260831220325 83 238 0.0 0.0 0.00 0.00 0.00 44 1010.4
20260831215820 83 203 0.0 0.0 0.00 0.00 0.00 46 1010.7
20260831215316 84 200 0.0 0.0 0.00 0.00 0.00 44 1010.7
20260831214813 82 215 0.0 0.0 0.00 0.00 0.00 44 1010.7
20260831214310 80 216 0.0 0.0 0.00 0.00 0.00 46 1010.7
20260831213805 82 211 0.0 0.0 0.00 0.00 0.00 47 1011.1
20260831213301 84 177 0.0 0.0 0.00 0.00 0.00 44 1011.1
20260831212756 84 197 0.0 0.0 0.00 0.00 0.00 43 1011.1
20260831212253 83 207 0.0 0.0 0.00 0.00 0.00 44 1011.1
20260831211751 81 206 0.0 0.0 0.00 0.00 0.00 46 1011.1
20260831211246 81 206 0.0 0.0 0.00 0.00 0.00 45 1011.1
20260831210741 81 217 0.0 0.0 0.00 0.00 0.00 45 1011.5
20260831210237 79 210 0.0 0.0 0.00 0.00 0.00 48 1011.5
20260831205736 79 215 0.0 0.0 0.00 0.00 0.00 49 1011.5
20260831205233 79 224 0.0 0.0 0.00 0.00 0.00 50 1011.5
20260831204732 79 246 0.0 0.0 0.00 0.00 0.00 48 1011.5
20260831204231 80 185 0.0 0.0 0.00 0.00 0.00 48 1011.5
20260831203725 79 226 0.0 0.0 0.00 0.00 0.00 48 1011.5
20260831203225 79 246 0.0 0.0 0.00 0.00 0.00 50 1012.1
20260831202724 78 153 0.0 0.0 0.00 0.00 0.00 49 1011.5
20260831202219 78 206 0.0 0.0 0.00 0.00 0.00 52 1011.8
20260831201718 78 214 0.0 0.0 0.00 0.00 0.00 50 1012.1
20260831201213 77 198 0.0 0.0 0.00 0.00 0.00 52 1012.1
20260831200709 78 198 0.0 0.0 0.00 0.00 0.00 51 1012.1
20260831200208 78 204 0.0 0.0 0.00 0.00 0.00 50 1012.1
20260831195703 78 213 0.0 0.0 0.00 0.00 0.00 49 1012.1
20260831195159 77 211 0.0 0.0 0.00 0.00 0.00 51 1012.1
20260831194653 77 201 0.0 0.0 0.00 0.00 0.00 53 1012.5
20260831194149 76 316 1.0 5.0 0.00 0.00 0.00 52 1012.5
20260831193643 76 164 1.0 1.0 0.00 0.00 0.00 53 1012.5
20260831193139 76 239 4.0 5.0 0.00 0.00 0.00 54 1012.5
20260831192634 76 38 0.0 0.0 0.00 0.00 0.00 53 1012.5
20260831192129 74 204 0.0 0.0 0.00 0.00 0.00 55 1012.5
20260831191625 73 179 0.0 0.0 0.00 0.00 0.00 58 1012.8
20260831191120 73 212 0.0 0.0 0.00 0.00 0.00 58 1012.8
20260831190610 73 277 0.0 0.0 0.00 0.00 0.00 57 1012.8
20260831190108 72 199 0.0 0.0 0.00 0.00 0.00 60 1012.8
20260831185559 72 9 0.0 0.0 0.00 0.00 0.00 60 1013.2
20260831185054 73 300 0.0 2.0 0.00 0.00 0.00 57 1012.8
20260831184548 73 103 1.0 2.0 0.00 0.00 0.00 59 1012.8
20260831184044 72 337 0.0 1.0 0.00 0.00 0.00 60 1012.8
20260831183542 71 285 2.0 3.0 0.00 0.00 0.00 61 1013.2
20260831183037 70 242 2.0 3.0 0.00 0.00 0.00 63 1013.2
20260831182536 71 317 3.0 5.0 0.00 0.00 0.00 61 1013.2
20260831182032 69 184 1.0 2.0 0.00 0.00 0.00 63 1013.2
20260831181527 68 199 1.0 2.0 0.00 0.00 0.00 66 1013.2
20260831181027 68 238 0.0 0.0 0.00 0.00 0.00 67 1013.2
20260831180521 69 217 0.0 0.0 0.00 0.00 0.00 65 1013.2
20260831180016 69 241 0.0 1.0 0.00 0.00 0.00 65 1013.5
20260831175512 68 239 1.0 1.0 0.00 0.00 0.00 65 1013.2
20260831175009 68 231 2.0 3.0 0.00 0.00 0.00 67 1013.5
20260831174503 69 231 1.0 2.0 0.00 0.00 0.00 64 1013.5
20260831174002 68 208 0.0 1.0 0.00 0.00 0.00 66 1013.5
20260831173500 68 197 2.0 3.0 0.00 0.00 0.00 68 1013.8
20260831172957 68 236 1.0 2.0 0.00 0.00 0.00 67 1013.8
20260831172453 67 211 0.0 0.0 0.00 0.00 0.00 69 1013.8
20260831171948 66 192 1.0 2.0 0.00 0.00 0.00 71 1013.8
20260831171443 65 207 0.0 0.0 0.00 0.00 0.00 73 1013.8
20260831170939 65 214 2.0 2.0 0.00 0.00 0.00 72 1013.8
20260831170430 65 196 2.0 2.0 0.00 0.00 0.00 72 1014.2
20260831165927 65 201 1.0 1.0 0.00 0.00 0.00 74 1014.2
20260831165422 64 210 0.0 0.0 0.00 0.00 0.00 74 1013.8
20260831164919 64 202 0.0 0.0 0.00 0.00 0.00 76 1013.8
20260831164415 63 200 1.0 1.0 0.00 0.00 0.00 77 1014.2
20260831163910 62 200 0.0 0.0 0.00 0.00 0.00 78 1014.2
20260831163405 61 217 0.0 0.0 0.00 0.00 0.00 80 1014.2
20260831162904 61 216 0.0 0.0 0.00 0.00 0.00 81 1014.2
20260831162359 61 52 2.0 2.0 0.00 0.00 0.00 82 1014.2
20260831161857 60 208 1.0 2.0 0.00 0.00 0.00 82 1014.5
20260831161354 60 219 0.0 1.0 0.00 0.00 0.00 83 1014.2
20260831160849 60 225 1.0 1.0 0.00 0.00 0.00 84 1014.5
20260831160344 59 289 2.0 2.0 0.00 0.00 0.00 84 1014.5
20260831155839 59 104 2.0 2.0 0.00 0.00 0.00 85 1014.2
20260831155338 59 187 1.0 1.0 0.00 0.00 0.00 86 1014.2
20260831154834 59 208 0.0 0.0 0.00 0.00 0.00 88 1014.5
20260831154330 58 156 0.0 0.0 0.00 0.00 0.00 88 1014.5
20260831153828 58 218 0.0 0.0 0.00 0.00 0.00 89 1014.5
20260831153325 58 215 0.0 1.0 0.00 0.00 0.00 90 1014.2
20260831152821 57 207 0.0 0.0 0.00 0.00 0.00 91 1014.2
20260831152316 57 261 1.0 2.0 0.00 0.00 0.00 92 1014.5
20260831151811 57 214 0.0 1.0 0.00 0.00 0.00 93 1014.5
20260831151310 56 208 0.0 0.0 0.00 0.00 0.00 93 1014.5
20260831150806 56 219 0.0 0.0 0.00 0.00 0.00 94 1014.2
20260831150301 56 221 1.0 1.0 0.00 0.00 0.00 95 1014.2
20260831145800 55 228 1.0 1.0 0.00 0.00 0.00 96 1014.5
20260831145256 55 222 1.0 1.0 0.00 0.00 0.00 96 1014.5
20260831144751 55 217 0.0 1.0 0.00 0.00 0.00 96 1014.9
20260831144248 54 215 0.0 0.0 0.00 0.00 0.00 96 1014.5
20260831143748 54 215 0.0 0.0 0.00 0.00 0.00 96 1014.9
20260831143243 54 209 0.0 0.0 0.00 0.00 0.00 97 1014.5
20260831142738 53 212 0.0 0.0 0.00 0.00 0.00 96 1014.2
20260831142233 53 213 0.0 0.0 0.00 0.00 0.00 96 1014.2
20260831141733 53 215 0.0 0.0 0.00 0.00 0.00 96 1014.2
20260831141228 52 214 0.0 0.0 0.00 0.00 0.00 96 1014.5
20260831140728 52 213 0.0 0.0 0.00 0.00 0.00 96 1014.5
20260831140222 52 213 0.0 0.0 0.00 0.00 0.00 96 1014.2
20260831135720 52 215 0.0 0.0 0.00 0.00 0.00 96 1014.5
20260831135216 52 215 0.0 0.0 0.00 0.00 0.00 96 1014.2
20260831134712 52 214 0.0 0.0 0.00 0.00 0.00 96 1014.5
20260831134208 52 213 0.0 0.0 0.00 0.00 0.00 95 1014.2
20260831133706 52 212 0.0 0.0 0.00 0.00 0.00 95 1014.5
20260831133201 52 215 0.0 0.0 0.00 0.00 0.00 95 1014.2
20260831132657 52 215 0.0 0.0 0.00 0.00 0.00 95 1014.5
20260831132156 52 214 0.0 0.0 0.00 0.00 0.00 95 1014.9
20260831131651 52 211 0.0 0.0 0.00 0.00 0.00 95 1014.9
20260831131148 52 214 0.0 0.0 0.00 0.00 0.00 95 1014.5
20260831130642 52 212 0.0 0.0 0.00 0.00 0.00 95 1014.9
20260831130138 52 213 0.0 0.0 0.00 0.00 0.00 95 1014.9
20260831125636 52 211 0.0 0.0 0.00 0.00 0.00 94 1014.5
20260831125132 52 213 0.0 0.0 0.00 0.00 0.00 94 1014.5
20260831124628 52 215 0.0 0.0 0.00 0.00 0.00 94 1014.5
20260831124124 52 210 0.0 0.0 0.00 0.00 0.00 94 1014.9
20260831123623 52 209 0.0 0.0 0.00 0.00 0.00 94 1014.9
20260831123122 52 209 0.0 0.0 0.00 0.00 0.00 94 1014.9
20260831122622 53 209 0.0 0.0 0.00 0.00 0.00 94 1014.9
20260831122119 53 210 0.0 0.0 0.00 0.00 0.00 94 1015.2